Location: Unspecified
(0.0000°N, 0.0000°E)
Time: 04:55:53
(UTC+00:00)

Tiros 1 despin weight - Pass Details

Date: 08 October 2020
Orbit: 594 x 641 km, 48.2° (Epoch: 28 October)

Event Time Altitude Azimuth Distance (km) Brightness Sun altitude
Rises 04:38:16 0° 213° (SSW) 2,846 - -17.2°
Exits shadow 04:39:39 - 211° (SSW) 2,304 ? -16.9°
Reaches altitude 10° 04:40:36 10° 210° (SSW) 1,936 ? -16.6°
Maximum altitude 04:44:58 61° 129° (SE) 674 ? -15.5°
Drops below altitude 10° 04:49:18 10° 48° (NE) 1,914 ? -14.5°
Sets 04:51:35 0° 45° (NE) 2,812 ? -13.9°
